This demonstration page uses our WeatherBlox Daily Observations layout. Learn more.

Left ArrowRight Arrow

Hourly Observations for April 13, 2019

Temp ( °F °C ) Dew Point ( °F °C ) Humidity (%) Winds ( mph kmh ) Pressure ( in mb ) Visibility ( mi km ) Precip ( " mm )
12:52 am 00:52 Mostly Clear 35 1.7 22 -5.6 59 59 W 7 11 30.07 1018 10 16 0.00 0.00
1:52 am 01:52 Clear 35 1.7 22 -5.6 59 59 WSW 8 13 30.08 1019 10 16 0.00 0.00
2:52 am 02:52 Clear 34 1.1 21 -6.1 59 59 W 8 13 30.07 1018 10 16 0.00 0.00
3:52 am 03:52 Clear 34 1.1 21 -6.1 59 59 W 6 9 30.08 1019 10 16 0.00 0.00
4:52 am 04:52 Clear 35 1.7 21 -6.1 57 57 SSW 7 11 30.10 1019 10 16 0.00 0.00
5:52 am 05:52 Clear 33 0.6 21 -6.1 61 61 SW 5 7 30.11 1020 10 16 0.00 0.00
6:52 am 06:52 Sunny 33 0.6 21 -6.1 61 61 W 5 7 30.11 1020 10 16 0.00 0.00
7:52 am 07:52 Mostly Sunny 36 2.2 22 -5.6 57 57 W 9 15 30.10 1019 10 16 0.00 0.00
8:52 am 08:52 Mostly Sunny 39 3.9 24 -4.4 55 55 NW 13 20 30.14 1021 10 16 0.00 0.00
9:52 am 09:52 Mostly Sunny 43 6.1 27 -2.8 53 53 NNW 12 19 30.13 1020 10 16 0.00 0.00
10:52 am 10:52 Partly Cloudy 44 6.7 28 -2.2 53 53 N 15 24 30.15 1021 10 16 0.00 0.00
11:52 am 11:52 Partly Cloudy 46 7.8 26 -3.3 46 46 N 14 22 30.19 1023 10 16 0.00 0.00
12:52 pm 12:52 Mostly Cloudy 49 9.4 26 -3.3 41 41 N 15 24 30.19 1022 10 16 0.00 0.00
1:52 pm 13:52 Mostly Cloudy 50 10 26 -3.3 39 39 N 15 24 30.16 1021 10 16 0.00 0.00
2:52 pm 14:52 Mostly Cloudy 52 11.1 27 -2.8 38 38 NNW 17 28 30.13 1020 10 16 0.00 0.00
3:52 pm 15:52 Mostly Cloudy 51 10.6 26 -3.3 38 38 NNW 13 20 30.10 1019 10 16 0.00 0.00
4:52 pm 16:52 Mostly Cloudy 52 11.1 26 -3.3 37 37 N 12 19 30.08 1019 10 16 0.00 0.00
5:52 pm 17:52 Mostly Cloudy 52 11.1 26 -3.3 37 37 N 13 20 30.09 1019 10 16 0.00 0.00
6:52 pm 18:52 Mostly Cloudy 50 10 26 -3.3 39 39 NNW 12 19 30.10 1019 10 16 0.00 0.00
7:52 pm 19:52 Mostly Cloudy 48 8.9 27 -2.8 44 44 N 12 19 30.09 1019 10 16 0.00 0.00
8:52 pm 20:52 Mostly Cloudy 47 8.3 25 -3.9 42 42 NE 8 13 30.10 1019 10 16 0.00 0.00
9:52 pm 21:52 Mostly Cloudy 45 7.2 26 -3.3 48 48 NNE 10 17 30.08 1019 10 16 0.00 0.00
10:52 pm 22:52 Mostly Cloudy 43 6.1 27 -2.8 53 53 NNE 10 17 30.07 1018 10 16 0.00 0.00
11:52 pm 23:52 Mostly Cloudy 40 4.4 26 -3.3 58 58 N 12 19 30.04 1017 10 16 0.00 0.00

Powered by AerisWeather